Content
SEND FEEDBACK

Daily
Averages
Monthly
Summary
United States of America

DONNELLSON, IOWA


Home > North America > United States > Iowa
Elevation: 720 feet     Latitude: 40 42N     Longitude: 091 34W

WEATHER
 
SELECT A DAY
Number of Records: 398,302;   Date Range: 4/29/95 - 4/19/14
 
SHARE

PRINT THIS DATA

[ ← Previous Day ]
WEATHER ALMANAC - FEBRUARY 5, 2013
[ Next Day → ]
[ °C ]   °F
Weather ElementAverageHighLow
Temperature30.3 °F41 °F (1:55 pm)19.4 °F (12:35 am)
Dewpoint25 °F32 °F (3:15 pm)17.6 °F (12:35 am)
Humidity81.3 %93 % (12:35 am)65 % (11:35 am)
Barometer29.95 in30.11 in (11:35 pm)29.85 in (9:55 am)
Wind Speed8.6 mph20.7 mph (1:35 pm)
Wind Gust26.5 mph (1:35 pm)
Weather ElementAverage
Visibility9.1 mi
Wind DirectionWSW (234.4 °)

Weather ElementTotal
Precipitation---
Heating Degree Days34.8 (Base 65)
Averaged from 68 records on February 5, 2013
WEATHER CONDITIONS BREAKOUT
WIND DIRECTION BREAKOUT
WEATHER BY HOUR - FEBRUARY 5, 2013
[ °C ]   °F
Local TimeTemperatureDewpointHumidityBarometerVisibilityWind DirectionWind SpeedGust SpeedPrecipitationEventsConditions
12:35 AM19.4 °F17.6 °F93 %29.96 in7.0 miCalmMostly Cloudy
12:55 AM21.2 °F17.6 °F86 %29.97 in10.0 miCalmOvercast
1:15 AM21.2 °F17.6 °F86 %29.96 in10.0 miCalmOvercast
1:35 AM21.2 °F17.6 °F86 %29.96 in10.0 miCalmOvercast
1:55 AM21.2 °F19.4 °F93 %29.95 in10.0 miCalmOvercast
2:15 AM21.2 °F19.4 °F93 %29.94 in7.0 miCalmOvercast
2:35 AM21.2 °F19.4 °F93 %29.93 in7.0 miSouth (190°)3.5 mphOvercast
2:55 AM21.2 °F19.4 °F93 %29.92 in10.0 miSouth (170°)4.6 mphOvercast
3:15 AM21.2 °F19.4 °F93 %29.91 in7.0 miSouth (190°)3.5 mphOvercast
3:35 AM23.0 °F19.4 °F86 %29.91 in7.0 miSSW (210°)4.6 mphOvercast
3:55 AM23.0 °F19.4 °F86 %29.90 in7.0 miSouth (190°)6.9 mphOvercast
4:15 AM23.0 °F21.2 °F93 %29.90 in7.0 miSW (220°)6.9 mphOvercast
4:35 AM23.0 °F19.4 °F86 %29.90 in7.0 miSSW (200°)3.5 mphOvercast
4:55 AM23.0 °F19.4 °F86 %29.89 in10.0 miSouth (190°)6.9 mphMostly Cloudy
5:15 AM24.8 °F19.4 °F80 %29.89 in10.0 miSSW (200°)8.1 mphScattered Clouds
5:35 AM24.8 °F19.4 °F80 %29.89 in10.0 miSSW (200°)9.2 mphScattered Clouds
5:55 AM24.8 °F19.4 °F80 %29.88 in10.0 miSouth (190°)8.1 mphScattered Clouds
6:15 AM24.8 °F19.4 °F80 %29.88 in10.0 miSSW (200°)8.1 mphOvercast
6:35 AM24.8 °F21.2 °F86 %29.88 in10.0 miSSW (200°)9.2 mphOvercast
6:55 AM24.8 °F21.2 °F86 %29.88 in7.0 miSSW (200°)9.2 mphOvercast
7:15 AM24.8 °F21.2 °F86 %29.88 in7.0 miSSW (200°)10.4 mphMostly Cloudy
7:35 AM24.8 °F21.2 °F86 %29.87 in7.0 miSSW (200°)10.4 mphScattered Clouds
7:55 AM24.8 °F21.2 °F86 %29.88 in5.0 miSW (220°)6.9 mphClear
8:15 AM24.8 °F21.2 °F86 %29.88 in5.0 miSSW (210°)6.9 mphClear
8:35 AM24.8 °F21.2 °F86 %29.88 in5.0 miSSW (210°)10.4 mphClear
8:55 AM24.8 °F21.2 °F86 %29.87 in5.0 miSSW (210°)10.4 mphClear
9:15 AM26.6 °F23.0 °F86 %29.86 in5.0 miSW (220°)12.7 mphClear
9:35 AM28.4 °F23.0 °F80 %29.86 in7.0 miSW (220°)11.5 mphClear
9:55 AM30.2 °F24.8 °F80 %29.85 in7.0 miSW (220°)13.8 mphClear
10:15 AM30.2 °F24.8 °F80 %29.87 in10.0 miWSW (240°)8.1 mphClear
10:35 AM33.8 °F26.6 °F75 %29.87 in10.0 miWest (260°)10.4 mph16.1 mphClear
10:55 AM33.8 °F26.6 °F75 %29.87 in10.0 miWSW (240°)9.2 mph17.3 mphClear
11:15 AM35.6 °F26.6 °F70 %29.87 in10.0 miWSW (250°)9.2 mphClear
11:35 AM37.4 °F26.6 °F65 %29.87 in10.0 miWSW (250°)10.4 mphClear
11:55 AM37.4 °F26.6 °F65 %29.87 in10.0 miWest (270°)10.4 mph17.3 mphClear
12:15 PM37.4 °F28.4 °F70 %29.87 in10.0 miWest (270°)12.7 mphClear
12:35 PM39.2 °F28.4 °F65 %29.87 in10.0 miWest (280°)13.8 mph19.6 mphClear
12:55 PM39.2 °F28.4 °F65 %29.87 in10.0 miWNW (290°)16.1 mph20.7 mphClear
1:15 PM39.2 °F30.2 °F70 %29.88 in10.0 miWNW (300°)16.1 mph25.3 mphClear
1:35 PM39.2 °F30.2 °F70 %29.89 in10.0 miWNW (290°)20.7 mph26.5 mphClear
1:55 PM41.0 °F30.2 °F65 %29.90 in10.0 miWNW (300°)16.1 mphScattered Clouds
2:15 PM39.2 °F30.2 °F70 %29.91 in10.0 miNW (310°)17.3 mph26.5 mphMostly Cloudy
2:35 PM39.2 °F30.2 °F70 %29.92 in10.0 miNW (310°)16.1 mph24.2 mphOvercast
2:55 PM39.2 °F30.2 °F70 %29.92 in10.0 miWNW (300°)16.1 mphOvercast
3:15 PM39.2 °F32.0 °F75 %29.93 in10.0 miNW (310°)10.4 mphMostly Cloudy
3:35 PM39.2 °F32.0 °F75 %29.94 in10.0 miNW (320°)15.0 mphScattered Clouds
3:55 PM37.4 °F30.2 °F75 %29.95 in10.0 miNW (310°)16.1 mph21.9 mphScattered Clouds
4:15 PM39.2 °F32.0 °F75 %29.96 in10.0 miWNW (300°)13.8 mph19.6 mphScattered Clouds
4:35 PM37.4 °F30.2 °F75 %29.97 in10.0 miNW (310°)16.1 mph20.7 mphScattered Clouds
4:55 PM37.4 °F30.2 °F75 %29.98 in10.0 miWNW (300°)15.0 mph21.9 mphScattered Clouds
5:15 PM35.6 °F30.2 °F81 %29.99 in10.0 miNW (310°)16.1 mphScattered Clouds
5:35 PM35.6 °F30.2 °F81 %30.01 in10.0 miNW (310°)12.7 mphOvercast
5:55 PM35.6 °F28.4 °F75 %30.02 in10.0 miNW (320°)9.2 mphMostly Cloudy
6:15 PM35.6 °F28.4 °F75 %30.02 in10.0 miNNW (330°)6.9 mphMostly Cloudy
6:35 PM33.8 °F28.4 °F81 %30.03 in10.0 miNW (320°)4.6 mphOvercast
6:55 PM33.8 °F28.4 °F81 %30.04 in10.0 miNW (310°)4.6 mphOvercast
7:15 PM33.8 °F28.4 °F81 %30.05 in10.0 miWNW (290°)5.8 mphOvercast
7:55 PM33.8 °F28.4 °F81 %30.06 in10.0 miWNW (290°)5.8 mphScattered Clouds
8:35 PM32.0 °F28.4 °F87 %30.07 in10.0 miWest (260°)3.5 mphClear
9:15 PM30.2 °F28.4 °F93 %30.08 in10.0 miWest (270°)4.6 mphClear
9:35 PM30.2 °F28.4 °F93 %30.09 in10.0 miWest (280°)3.5 mphClear
9:55 PM30.2 °F26.6 °F86 %30.09 in10.0 miWest (280°)5.8 mphClear
10:15 PM30.2 °F28.4 °F93 %30.10 in10.0 miWest (270°)4.6 mphClear
10:35 PM30.2 °F26.6 °F86 %30.10 in10.0 miWest (280°)5.8 mphClear
10:55 PM30.2 °F26.6 °F86 %30.10 in10.0 miWest (270°)4.6 mphClear
11:15 PM30.2 °F28.4 °F93 %30.10 in10.0 miWest (270°)5.8 mphClear
11:35 PM30.2 °F26.6 °F86 %30.11 in10.0 miWNW (290°)5.8 mphClear
11:55 PM30.2 °F26.6 °F86 %30.11 in10.0 miNW (320°)3.5 mphClear
Hourly data recorded from KFSW, located 12.84 miles away from Donnellson, Iowa







STORIES FROM OUR PARTNERS